When you browse on this site, cookies collect data to enhance your experience and personalize the content and advertising you see.
Visit our Privacy Policy to learn more. By continuing to use the site, you agree to this use of cookies and data.
  • In Österreich
  • Länderverzeichnis
  • Für 7 Tage
  • Wassertemperatur
  • Satellitenkarten
  • Wetterkarte
  • News
  • Widgets
  • user-avatar
    Anmelden

    Stündliche Wetter Chipata

    Heute, 17 Dezember, Montag

    Zeit Temperatur Niederschläge Wind Luftdruck Luftfeuchtigkeit
    00:00 +21°C° 0 mm 2 m/S 678 mmHg 89%
    01:00 +22°C° 0 mm 1 m/S 678 mmHg 89%
    02:00 +22°C° 0 mm 1 m/S 678 mmHg 90%
    03:00 +21°C° 0 mm 1 m/S 678 mmHg 90%
    04:00 +21°C° 0 mm 1 m/S 678 mmHg 90%
    05:00 +21°C° 0 mm 1 m/S 678 mmHg 90%
    06:00 +23°C° 0 mm 1 m/S 679 mmHg 84%
    07:00 +24°C° 0 mm 2 m/S 679 mmHg 78%
    08:00 +26°C° 0 mm 2 m/S 680 mmHg 72%
    09:00 +28°C° 0.3 mm 2 m/S 680 mmHg 65%
    10:00 +29°C° 0.3 mm 2 m/S 680 mmHg 59%
    11:00 +31°C° 0.3 mm 2 m/S 679 mmHg 53%
    12:00 +31°C° 0.5 mm 1 m/S 679 mmHg 53%
    13:00 +31°C° 0.5 mm 1 m/S 678 mmHg 52%
    14:00 +31°C° 0.5 mm 1 m/S 678 mmHg 52%
    15:00 +31°C° 0.7 mm 1 m/S 677 mmHg 56%
    16:00 +30°C° 0.7 mm 1 m/S 677 mmHg 60%
    17:00 +29°C° 0.7 mm 1 m/S 677 mmHg 64%
    18:00 +28°C° 0.6 mm 2 m/S 677 mmHg 69%
    19:00 +26°C° 0.6 mm 2 m/S 677 mmHg 74%
    20:00 +25°C° 0.6 mm 2 m/S 677 mmHg 78%
    21:00 +24°C° 0.7 mm 2 m/S 677 mmHg 82%
    22:00 +23°C° 0.7 mm 2 m/S 677 mmHg 85%
    23:00 +23°C° 0.7 mm 1 m/S 677 mmHg 89%

    Morgen, 18 Dezember, Dienstag

    Zeit Temperatur Niederschläge Wind Luftdruck Luftfeuchtigkeit
    00:00 +23°C° 0.7 mm 1 m/S 677 mmHg 89%
    01:00 +22°C° 0.7 mm 1 m/S 677 mmHg 89%
    02:00 +22°C° 0.7 mm 1 m/S 677 mmHg 89%
    03:00 +22°C° 0.2 mm 1 m/S 677 mmHg 90%
    04:00 +22°C° 0.2 mm 1 m/S 677 mmHg 90%
    05:00 +22°C° 0.2 mm 1 m/S 677 mmHg 91%
    06:00 +23°C° 0 mm 1 m/S 678 mmHg 88%
    07:00 +24°C° 0 mm 1 m/S 678 mmHg 85%
    08:00 +25°C° 0 mm 1 m/S 679 mmHg 81%
    09:00 +26°C° 0.3 mm 2 m/S 679 mmHg 74%
    10:00 +28°C° 0.3 mm 2 m/S 678 mmHg 67%
    11:00 +29°C° 0.3 mm 2 m/S 678 mmHg 60%
    12:00 +30°C° 0.4 mm 2 m/S 678 mmHg 58%
    13:00 +31°C° 0.4 mm 2 m/S 677 mmHg 55%
    14:00 +31°C° 0.4 mm 1 m/S 677 mmHg 52%
    15:00 +30°C° 0.6 mm 1 m/S 677 mmHg 57%
    16:00 +29°C° 0.6 mm 1 m/S 676 mmHg 63%
    17:00 +28°C° 0.6 mm 1 m/S 676 mmHg 68%
    18:00 +27°C° 1.3 mm 1 m/S 676 mmHg 74%
    19:00 +25°C° 1.3 mm 1 m/S 676 mmHg 80%
    20:00 +24°C° 1.3 mm 1 m/S 676 mmHg 86%
    21:00 +23°C° 0.2 mm 1 m/S 677 mmHg 87%
    22:00 +23°C° 0.2 mm 1 m/S 677 mmHg 87%
    23:00 +23°C° 0.2 mm 1 m/S 677 mmHg 88%

    übermorgen, 19 Dezember, Mittwoch

    Zeit Temperatur Niederschläge Wind Luftdruck Luftfeuchtigkeit
    00:00 +23°C° 0.5 mm 1 m/S 677 mmHg 88%
    01:00 +23°C° 0.5 mm 1 m/S 676 mmHg 89%
    02:00 +23°C° 0.5 mm 1 m/S 676 mmHg 90%
    03:00 +22°C° 0.6 mm 1 m/S 676 mmHg 90%
    04:00 +22°C° 0.6 mm 1 m/S 676 mmHg 91%
    05:00 +22°C° 0.6 mm 1 m/S 676 mmHg 92%
    06:00 +22°C° 0.6 mm 1 m/S 676 mmHg 91%
    07:00 +23°C° 0.6 mm 1 m/S 677 mmHg 89%
    08:00 +23°C° 0.6 mm 1 m/S 677 mmHg 88%
    09:00 +24°C° 1 mm 1 m/S 677 mmHg 86%
    10:00 +25°C° 1 mm 2 m/S 677 mmHg 83%
    11:00 +25°C° 1 mm 2 m/S 677 mmHg 80%
    12:00 +26°C° 0.9 mm 2 m/S 677 mmHg 78%
    13:00 +27°C° 0.9 mm 1 m/S 676 mmHg 75%
    14:00 +27°C° 0.9 mm 1 m/S 676 mmHg 73%
    15:00 +27°C° 0.6 mm 1 m/S 676 mmHg 75%
    16:00 +26°C° 0.6 mm 1 m/S 675 mmHg 76%
    17:00 +24°C° 0.6 mm 0 m/S 675 mmHg 78%
    18:00 +25°C° 0.5 mm 1 m/S 675 mmHg 82%
    19:00 +24°C° 0.5 mm 1 m/S 676 mmHg 86%
    20:00 +23°C° 0.5 mm 1 m/S 676 mmHg 89%
    21:00 +23°C° 0.9 mm 1 m/S 676 mmHg 91%
    22:00 +23°C° 0.9 mm 1 m/S 676 mmHg 92%
    23:00 +22°C° 0.9 mm 1 m/S 676 mmHg 93%

    20 Dezember, Donnerstag

    Zeit Temperatur Niederschläge Wind Luftdruck Luftfeuchtigkeit
    00:00 +22°C° 0.6 mm 1 m/S 676 mmHg 93%
    01:00 +22°C° 0.6 mm 1 m/S 675 mmHg 94%
    02:00 +22°C° 0.6 mm 1 m/S 675 mmHg 95%
    03:00 +22°C° 0.4 mm 1 m/S 675 mmHg 95%
    04:00 +21°C° 0.4 mm 1 m/S 675 mmHg 95%
    05:00 +21°C° 0.4 mm 1 m/S 675 mmHg 95%
    06:00 +22°C° 0.5 mm 1 m/S 676 mmHg 94%
    07:00 +21°C° 0.5 mm 2 m/S 676 mmHg 92%
    08:00 +23°C° 0.5 mm 2 m/S 677 mmHg 91%
    09:00 +23°C° 0.8 mm 2 m/S 677 mmHg 89%
    10:00 +24°C° 0.8 mm 2 m/S 677 mmHg 87%
    11:00 +24°C° 0.8 mm 3 m/S 677 mmHg 85%
    12:00 +25°C° 0.7 mm 3 m/S 676 mmHg 84%
    13:00 +25°C° 0.7 mm 3 m/S 675 mmHg 83%
    14:00 +25°C° 0.7 mm 3 m/S 675 mmHg 82%
    15:00 +25°C° 0.5 mm 2 m/S 675 mmHg 82%
    16:00 +25°C° 0.5 mm 2 m/S 675 mmHg 83%
    17:00 +25°C° 0.5 mm 1 m/S 675 mmHg 84%
    18:00 +24°C° 0.6 mm 1 m/S 675 mmHg 87%
    19:00 +23°C° 0.6 mm 1 m/S 675 mmHg 90%
    20:00 +20°C° 0.6 mm 0 m/S 676 mmHg 93%
    21:00 +22°C° 0.2 mm 1 m/S 676 mmHg 93%
    22:00 +22°C° 0.2 mm 1 m/S 676 mmHg 94%
    23:00 +22°C° 0.2 mm 1 m/S 676 mmHg 94%

    21 Dezember, Freitag

    Zeit Temperatur Niederschläge Wind Luftdruck Luftfeuchtigkeit
    00:00 +22°C° 0.1 mm 1 m/S 676 mmHg 95%
    01:00 +22°C° 0.1 mm 1 m/S 675 mmHg 95%
    02:00 +21°C° 0.1 mm 1 m/S 675 mmHg 96%
    03:00 +21°C° 0.1 mm 1 m/S 675 mmHg 96%
    04:00 +21°C° 0.1 mm 1 m/S 675 mmHg 96%
    05:00 +21°C° 0.1 mm 1 m/S 675 mmHg 97%
    06:00 +22°C° 0.2 mm 1 m/S 676 mmHg 94%
    07:00 +21°C° 0.2 mm 2 m/S 676 mmHg 92%
    08:00 +23°C° 0.2 mm 2 m/S 677 mmHg 90%
    09:00 +24°C° 0.6 mm 2 m/S 677 mmHg 88%
    10:00 +24°C° 0.6 mm 2 m/S 677 mmHg 87%
    11:00 +25°C° 0.6 mm 3 m/S 676 mmHg 86%
    12:00 +25°C° 1 mm 3 m/S 676 mmHg 85%
    13:00 +25°C° 1 mm 3 m/S 675 mmHg 85%
    14:00 +25°C° 1 mm 3 m/S 675 mmHg 85%
    15:00 +24°C° 1.3 mm 2 m/S 675 mmHg 87%
    16:00 +24°C° 1.3 mm 2 m/S 675 mmHg 89%
    17:00 +23°C° 1.3 mm 2 m/S 675 mmHg 91%
    18:00 +23°C° 0.8 mm 1 m/S 675 mmHg 92%
    19:00 +22°C° 0.8 mm 1 m/S 675 mmHg 93%
    20:00 +22°C° 0.8 mm 1 m/S 676 mmHg 95%
    21:00 +22°C° 0.3 mm 1 m/S 676 mmHg 95%
    22:00 +22°C° 0.3 mm 1 m/S 676 mmHg 95%
    23:00 +21°C° 0.3 mm 1 m/S 676 mmHg 95%

    22 Dezember, Samstag

    Zeit Temperatur Niederschläge Wind Luftdruck Luftfeuchtigkeit
    00:00 +21°C° 0.7 mm 1 m/S 675 mmHg 95%
    01:00 +21°C° 0.7 mm 1 m/S 675 mmHg 95%
    02:00 +21°C° 0.7 mm 1 m/S 675 mmHg 95%
    03:00 +21°C° 0.5 mm 1 m/S 675 mmHg 95%
    04:00 +21°C° 0.5 mm 1 m/S 675 mmHg 96%
    05:00 +21°C° 0.5 mm 1 m/S 675 mmHg 96%
    06:00 +21°C° 0.5 mm 1 m/S 675 mmHg 92%
    07:00 +21°C° 0.5 mm 2 m/S 676 mmHg 89%
    08:00 +23°C° 0.5 mm 2 m/S 677 mmHg 86%
    09:00 +24°C° 0.7 mm 2 m/S 676 mmHg 83%
    10:00 +25°C° 0.7 mm 2 m/S 676 mmHg 81%
    11:00 +25°C° 0.7 mm 2 m/S 676 mmHg 79%
    12:00 +25°C° 1.2 mm 2 m/S 676 mmHg 81%
    13:00 +25°C° 1.2 mm 2 m/S 675 mmHg 83%
    14:00 +25°C° 1.2 mm 2 m/S 675 mmHg 85%
    15:00 +25°C° 0.9 mm 1 m/S 674 mmHg 86%
    16:00 +24°C° 0.9 mm 1 m/S 674 mmHg 88%
    17:00 +24°C° 0.9 mm 1 m/S 674 mmHg 89%
    18:00 +23°C° 0.3 mm 1 m/S 675 mmHg 91%
    19:00 +23°C° 0.3 mm 1 m/S 675 mmHg 93%
    20:00 +22°C° 0.3 mm 1 m/S 675 mmHg 95%
    21:00 +22°C° 0.2 mm 1 m/S 675 mmHg 95%
    22:00 +22°C° 0.2 mm 1 m/S 675 mmHg 96%
    23:00 +22°C° 0.2 mm 1 m/S 675 mmHg 96%
    Mehr zeigen